H1 CPF 2 NER 2025 9 22 9 265 01 glonass146 H2 2216101 9146 54377 2025 9 22 0 0 0 2025 9 25 23 45 0 900 1 1 0 0 0 1 H9 10 0 60940 0.00000 0 19467628.425 -997240.303 16441614.666 10 0 60940 900.00000 0 21285661.350 -505608.105 14029406.217 10 0 60940 1800.00000 0 22831387.070 -227386.573 11344369.164 10 0 60940 2700.00000 0 24055426.341 -127755.610 8438636.844 10 0 60940 3600.00000 0 24918417.321 -163355.040 5368682.798 10 0 60940 4500.00000 0 25392612.807 -284361.239 2194220.521 10 0 60940 5400.00000 0 25463008.718 -436842.858 -1022964.218 10 0 60940 6300.00000 0 25127955.248 -565294.889 -4220225.055 10 0 60940 7200.00000 0 24399224.031 -615242.365 -7335285.967 10 0 60940 8100.00000 0 23301527.913 -535801.740 -10307466.227 10 0 60940 9000.00000 0 21871513.371 -282089.682 -13078874.117 10 0 60940 9900.00000 0 20156268.199 182624.504 -15595544.837 10 0 60940 10800.00000 0 18211407.838 885115.541 -17808499.339 10 0 60940 11700.00000 0 16098821.525 1840825.556 -19674702.740 10 0 60940 12600.00000 0 13884173.809 3052973.423 -21157903.216 10 0 60940 13500.00000 0 11634266.979 4512188.381 -22229335.089 10 0 60940 14400.00000 0 9414375.411 6196683.903 -22868272.803 10 0 60940 15300.00000 0 7285663.583 8072964.746 -23062425.636 10 0 60940 16200.00000 0 5302795.403 10097037.634 -22808166.356 10 0 60940 17100.00000 0 3511833.951 12216074.883 -22110590.290 10 0 60940 18000.00000 0 1948518.144 14370461.312 -20983404.593 10 0 60940 18900.00000 0 636986.631 16496138.952 -19448650.711 10 0 60940 19800.00000 0 -410999.741 18527151.705 -17536266.122 10 0 60940 20700.00000 0 -1196306.489 20398283.953 -15283494.417 10 0 60940 21600.00000 0 -1732136.946 22047683.282 -12734155.550 10 0 60940 22500.00000 0 -2043220.829 23419358.372 -9937790.679 10 0 60940 23400.00000 0 -2164515.905 24465448.265 -6948698.314 10 0 60940 24300.00000 0 -2139479.028 25148168.922 -3824880.553 10 0 60940 25200.00000 0 -2017980.586 25441356.482 -626919.778 10 0 60940 26100.00000 0 -1853951.163 25331543.408 2583192.451 10 0 60940 27000.00000 0 -1702860.196 24818523.276 5743251.791 10 0 60940 27900.00000 0 -1619133.225 23915381.141 8792039.906 10 0 60940 28800.00000 0 -1653616.671 22647988.660 11670502.796 10 0 60940 29700.00000 0 -1851196.966 21053985.267 14322886.380 10 0 60940 30600.00000 0 -2248674.209 19181287.843 16697808.037 10 0 60940 31500.00000 0 -2872979.902 17086190.724 18749244.071 10 0 60940 32400.00000 0 -3739813.936 14831134.617 20437414.830 10 0 60940 33300.00000 0 -4852758.680 12482236.401 21729551.119 10 0 60940 34200.00000 0 -6202908.268 10106681.615 22600527.718 10 0 60940 35100.00000 0 -7769030.010 7770086.857 23033352.198 10 0 60940 36000.00000 0 -9518252.904 5533940.594 23019499.731 10 0 60940 36900.00000 0 -11407256.450 3453227.699 22559087.206 10 0 60940 37800.00000 0 -13383912.240 1574335.648 21660882.730 10 0 60940 38700.00000 0 -15389311.865 -66671.209 20342149.403 10 0 60940 39600.00000 0 -17360098.313 -1445337.723 18628325.223 10 0 60940 40500.00000 0 -19231004.952 -2549610.902 16552543.966 10 0 60940 41400.00000 0 -20937496.994 -3380106.563 14155004.916 10 0 60940 42300.00000 0 -22418405.290 -3949838.398 11482202.422 10 0 60940 43200.00000 0 -23618442.006 -4283420.733 8586029.192 10 0 60940 44100.00000 0 -24490491.981 -4415778.562 5522770.091 10 0 60940 45000.00000 0 -24997582.457 -4390419.499 2352005.797 10 0 60940 45900.00000 0 -25114447.049 -4257341.213 -864552.071 10 0 60940 46800.00000 0 -24828616.770 -4070663.760 -4064271.015 10 0 60940 47700.00000 0 -24140990.865 -3886088.283 -7184828.228 10 0 60940 48600.00000 0 -23065862.445 -3758291.248 -10165436.420 10 0 60940 49500.00000 0 -21630397.142 -3738366.281 -12948039.653 10 0 60940 50400.00000 0 -19873586.545 -3871423.677 -15478454.514 10 0 60940 51300.00000 0 -17844720.561 -4194450.804 -17707433.344 10 0 60940 52200.00000 0 -15601443.348 -4734525.319 -19591628.016 10 0 60940 53100.00000 0 -13207475.064 -5507457.794 -21094435.094 10 0 60940 54000.00000 0 -10730095.546 -6516921.825 -22186705.906 10 0 60940 54900.00000 0 -8237495.775 -7754108.755 -22847308.122 10 0 60940 55800.00000 0 -5796108.095 -9197921.758 -23063528.511 10 0 60940 56700.00000 0 -3468026.542 -10815701.106 -22831309.910 10 0 60940 57600.00000 0 -1308624.341 -12564450.107 -22155318.734 10 0 60940 58500.00000 0 635533.095 -14392510.114 -21048842.621 10 0 60940 59400.00000 0 2328394.070 -16241614.321 -19533521.050 10 0 60940 60300.00000 0 3745676.119 -18049234.338 -17638914.861 10 0 60940 61200.00000 0 4875620.780 -19751121.361 -15401923.593 10 0 60940 62100.00000 0 5719218.327 -21283935.807 -12866062.335 10 0 60940 63000.00000 0 6289895.351 -22587855.713 -10080612.372 10 0 60940 63900.00000 0 6612680.400 -23609055.126 -7099662.276 10 0 60940 64800.00000 0 6722884.637 -24301949.264 -3981058.080 10 0 60940 65700.00000 0 6664354.583 -24631113.014 -785282.872 10 0 60940 66600.00000 0 6487371.712 -24572792.993 2425712.517 10 0 60940 67500.00000 0 6246288.210 -24115950.384 5589705.244 10 0 60940 68400.00000 0 5996999.050 -23262791.314 8645399.713 10 0 60940 69300.00000 0 5794357.100 -22028762.858 11533607.492 10 0 60940 70200.00000 0 5689640.166 -20442014.860 14198385.549 10 0 60940 71100.00000 0 5728176.532 -18542349.852 16588111.457 10 0 60940 72000.00000 0 5947228.774 -16379704.423 18656475.474 10 0 60940 72900.00000 0 6374224.856 -14012224.524 20363371.105 10 0 60940 73800.00000 0 7025411.029 -11504013.855 21675667.728 10 0 60940 74700.00000 0 7904983.644 -8922647.750 22567850.946 10 0 60940 75600.00000 0 9004737.203 -6336554.543 23022518.767 10 0 60940 76500.00000 0 10304244.742 -3812371.817 23030724.180 10 0 60940 77400.00000 0 11771564.628 -1412386.048 22592157.283 10 0 60940 78300.00000 0 13364446.073 807839.100 21715162.931 10 0 60940 79200.00000 0 15031984.947 2801548.168 20416592.635 10 0 60940 80100.00000 0 16716662.431 4532506.760 18721492.423 10 0 60940 81000.00000 0 18356682.827 5976270.861 16662631.354 10 0 60940 81900.00000 0 19888513.812 7120959.706 14279878.428 10 0 60940 82800.00000 0 21249523.298 7967499.836 11619438.699 10 0 60940 83700.00000 0 22380602.337 8529329.998 8732962.378 10 0 60940 84600.00000 0 23228663.416 8831579.318 5676543.557 10 0 60940 85500.00000 0 23748908.086 8909753.460 2509627.797 10 0 60941 0.00000 0 23906767.159 8807984.704 -706149.620 10 0 60941 900.00000 0 23679430.236 8576920.516 -3908173.244 10 0 60941 1800.00000 0 23056898.471 8271341.214 -7034075.840 10 0 60941 2700.00000 0 22042515.102 7947608.755 -10022966.167 10 0 60941 3600.00000 0 20652950.041 7661056.341 -12816626.550 10 0 60941 4500.00000 0 18917638.633 7463431.019 -15360657.283 10 0 60941 5400.00000 0 16877697.881 7400499.080 -17605544.206 10 0 60941 6300.00000 0 14584365.703 7509916.961 -19507627.854 10 0 60941 7200.00000 0 12097029.081 7819458.731 -21029954.869 10 0 60941 8100.00000 0 9480924.141 8345675.746 -22142995.096 10 0 60941 9000.00000 0 6804604.829 9093045.444 -22825210.746 10 0 60941 9900.00000 0 4137286.212 10053645.186 -23063467.171 10 0 60941 10800.00000 0 1546173.268 11207364.751 -22853278.115 10 0 60941 11700.00000 0 -906113.896 12522648.222 -22198881.589 10 0 60941 12600.00000 0 -3163911.889 13957733.717 -21113145.840 10 0 60941 13500.00000 0 -5180585.380 15462338.569 -19617308.084 10 0 60941 14400.00000 0 -6920213.266 16979718.966 -17740551.767 10 0 60941 15300.00000 0 -8358821.281 18449017.507 -15519431.176 10 0 60941 16200.00000 0 -9485111.730 19807800.186 -12997154.898 10 0 60941 17100.00000 0 -10300662.147 20994676.571 -10222742.326 10 0 60941 18000.00000 0 -10819586.702 21951893.486 -7250069.726 10 0 60941 18900.00000 0 -11067676.683 22627793.790 -4136824.420 10 0 60941 19800.00000 0 -11081057.893 22979037.496 -943387.326 10 0 60941 20700.00000 0 -10904422.892 22972492.489 2268334.490 10 0 60941 21600.00000 0 -10588913.568 22586715.931 5436102.822 10 0 60941 22500.00000 0 -10189743.906 21812964.546 8498548.004 10 0 60941 23400.00000 0 -9763663.405 20655691.594 11396350.336 10 0 60941 24300.00000 0 -9366368.089 19132509.667 14073380.925 10 0 60941 25200.00000 0 -9049967.907 17273620.521 16477780.501 10 0 60941 26100.00000 0 -8860616.861 15120735.152 18562956.049 10 0 60941 27000.00000 0 -8836405.263 12725528.261 20288476.776 10 0 60941 27900.00000 0 -9005602.564 10147690.263 21620852.884 10 0 60941 28800.00000 0 -9385324.664 7452656.526 22534182.716 10 0 60941 29700.00000 0 -9980682.062 4709106.656 23010656.242 10 0 60941 30600.00000 0 -10784445.418 1986336.085 23040905.336 10 0 60941 31500.00000 0 -11777243.704 -648392.421 22624193.872 10 0 60941 32400.00000 0 -12928288.176 -3132408.729 21768443.469 10 0 60941 33300.00000 0 -14196593.508 -5410001.586 20490093.485 10 0 60941 34200.00000 0 -15532646.648 -7434493.552 18813796.813 10 0 60941 35100.00000 0 -16880455.040 -9169938.720 16771956.063 10 0 60941 36000.00000 0 -18179889.558 -10592372.680 14404107.664 10 0 60941 36900.00000 0 -19369224.629 -11690562.451 11756164.621 10 0 60941 37800.00000 0 -20387769.083 -12466224.876 8879531.503 10 0 60941 38700.00000 0 -21178476.783 -12933704.211 5830108.194 10 0 60941 39600.00000 0 -21690426.275 -13119122.486 2667201.512 10 0 60941 40500.00000 0 -21881063.694 -13059038.667 -547633.900 10 0 60941 41400.00000 0 -21718112.800 -12798673.786 -3751802.220 10 0 60941 42300.00000 0 -21181069.873 -12389777.924 -6882896.051 10 0 60941 43200.00000 0 -20262218.791 -11888230.453 -9879923.774 10 0 60941 44100.00000 0 -18967122.069 -11351476.519 -12684509.370 10 0 60941 45000.00000 0 -17314566.067 -10835909.795 -15242039.980 10 0 60941 45900.00000 0 -15335961.968 -10394313.778 -17502737.735 10 0 60941 46800.00000 0 -13074227.334 -10073471.184 -19422634.181 10 0 60941 47700.00000 0 -10582195.207 -9912043.560 -20964427.868 10 0 60941 48600.00000 0 -7920617.581 -9938811.384 -22098208.368 10 0 60941 49500.00000 0 -5155847.035 -10171349.207 -22802033.002 10 0 60941 50400.00000 0 -2357293.620 -10615191.676 -23062345.614 10 0 60941 51300.00000 0 405236.886 -11263525.205 -22874230.148 10 0 60941 52200.00000 0 3064212.705 -12097417.726 -22241494.962 10 0 60941 53100.00000 0 5556943.164 -13086576.187 -21176587.193 10 0 60941 54000.00000 0 7827937.285 -14190599.287 -19700339.690 10 0 60941 54900.00000 0 9830957.057 -15360672.200 -17841556.107 10 0 60941 55800.00000 0 11530681.474 -16541631.606 -15636442.813 10 0 60941 56700.00000 0 12903913.948 -17674313.961 -13127899.027 10 0 60941 57600.00000 0 13940284.769 -18698088.221 -10364679.219 10 0 60941 58500.00000 0 14642421.396 -19553466.599 -7400444.196 10 0 60941 59400.00000 0 15025581.521 -20184683.818 -4292719.337 10 0 60941 60300.00000 0 15116766.201 -20542136.727 -1101780.172 10 0 60941 61200.00000 0 14953351.912 -20584582.057 2110513.152 10 0 60941 62100.00000 0 14581300.288 -20281000.272 5281910.076 10 0 60941 63000.00000 0 14053021.768 -19612047.488 8350969.629 10 0 60941 63900.00000 0 13424983.549 -18571034.579 11258243.319 10 0 60941 64800.00000 0 12755162.674 -17164392.314 13947418.527 10 0 60941 65700.00000 0 12100451.303 -15411602.636 16366400.897 10 0 60941 66600.00000 0 11514122.934 -13344598.279 18468315.506 10 0 60941 67500.00000 0 11043465.687 -11006654.765 20212408.232 10 0 60941 68400.00000 0 10727681.613 -8450819.679 21564830.685 10 0 60941 69300.00000 0 10596140.010 -5737943.061 22499294.163 10 0 60941 70200.00000 0 10667057.969 -2934389.099 22997580.469 10 0 60941 71100.00000 0 10946663.831 -109522.356 23049899.914 10 0 60941 72000.00000 0 11428879.284 2666928.790 22655089.425 10 0 60941 72900.00000 0 12095534.459 5327523.686 21820646.418 10 0 60941 73800.00000 0 12917108.280 7809667.152 20562596.921 10 0 60941 74700.00000 0 13853964.458 10057968.124 18905199.343 10 0 60941 75600.00000 0 14858032.670 12026301.737 16880488.320 10 0 60941 76500.00000 0 15874865.576 13679489.242 14527666.054 10 0 60941 77400.00000 0 16845986.088 14994525.610 11892351.679 10 0 60941 78300.00000 0 17711426.579 15961303.327 9025702.152 10 0 60941 79200.00000 0 18412352.974 16582801.793 5983421.021 10 0 60941 80100.00000 0 18893662.458 16874734.216 2824674.087 10 0 60941 81000.00000 0 19106444.053 16864666.841 -389066.744 10 0 60941 81900.00000 0 19010196.718 16590648.009 -3595228.312 10 0 60941 82800.00000 0 18574709.521 16099405.499 -6731365.223 10 0 60941 83700.00000 0 17781522.778 15444189.317 -9736387.872 10 0 60941 84600.00000 0 16624906.759 14682352.361 -12551764.161 10 0 60941 85500.00000 0 15112315.284 13872772.677 -15122670.173 10 0 60942 0.00000 0 13264294.186 13073227.804 -17399066.047 10 0 60942 900.00000 0 11113846.681 12337833.073 -19336676.477 10 0 60942 1800.00000 0 8705284.485 11714654.219 -20897853.247 10 0 60942 2700.00000 0 6092609.447 11243594.340 -22052307.049 10 0 60942 3600.00000 0 3337495.871 10954645.719 -22777691.534 10 0 60942 4500.00000 0 506957.037 10866579.622 -23060030.083 10 0 60942 5400.00000 0 -2329206.530 10986128.842 -22893977.637 10 0 60942 6300.00000 0 -5101070.874 11307696.610 -22282913.391 10 0 60942 7200.00000 0 -7741253.970 11813603.142 -21238863.500 10 0 60942 8100.00000 0 -10187472.463 12474858.461 -19782256.149 10 0 60942 9000.00000 0 -12384884.468 13252427.968 -17941514.460 10 0 60942 9900.00000 0 -14288122.244 14098936.695 -15752495.726 10 0 60942 10800.00000 0 -15862931.754 14960739.880 -13257788.254 10 0 60942 11700.00000 0 -17087352.567 15780272.267 -10505879.721 10 0 60942 12600.00000 0 -17952390.795 16498577.034 -7550213.341 10 0 60942 13500.00000 0 -18462158.882 17057907.815 -4448150.225 10 0 60942 14400.00000 0 -18633478.262 17404294.393 -1259858.020 10 0 60942 15300.00000 0 -18494963.208 17489964.226 1952852.663 10 0 60942 16200.00000 0 -18085625.699 17275518.122 5127721.621 10 0 60942 17100.00000 0 -17453060.960 16731768.720 8203239.374 10 0 60942 18000.00000 0 -16651290.601 15841164.561 11119831.490 10 0 60942 18900.00000 0 -15738354.314 14598739.816 13821004.481 10 0 60942 19800.00000 0 -14773751.281 13012549.468 16254431.739 10 0 60942 20700.00000 0 -13815838.478 11103571.005 18372959.166 10 0 60942 21600.00000 0 -12919294.617 8905075.748 20135511.897 10 0 60942 22500.00000 0 -12132755.524 6461494.619 21507885.306 10 0 60942 23400.00000 0 -11496719.626 3826824.071 22463405.719 10 0 60942 24300.00000 0 -11041810.901 1062636.588 22983448.496 10 0 60942 25200.00000 0 -10787471.979 -1764223.476 23057803.723 10 0 60942 26100.00000 0 -10741142.294 -4584164.953 22684882.272 10 0 60942 27000.00000 0 -10897956.239 -7327492.779 21871757.772 10 0 60942 27900.00000 0 -11240974.799 -9927060.603 20634042.828 10 0 60942 28800.00000 0 -11741941.953 -12320824.032 18995600.756 10 0 60942 29700.00000 0 -12362535.237 -14454189.158 16988097.096 10 0 60942 30600.00000 0 -13056059.001 -16282058.977 14650398.193 10 0 60942 31500.00000 0 -13769509.970 -17770492.340 12027827.235 10 0 60942 32400.00000 0 -14445928.655 -18897905.875 9171291.087 10 0 60942 33300.00000 0 -15026937.507 -19655768.199 6136294.150 10 0 60942 34200.00000 0 -15455358.246 -20048756.851 2981858.136 10 0 60942 35100.00000 0 -15677796.834 -20094371.146 -230631.063 10 0 60942 36000.00000 0 -15647085.484 -19822017.214 -3438626.372 10 0 60942 36900.00000 0 -15324476.773 -19271604.148 -6579647.921 10 0 60942 37800.00000 0 -14681495.257 -18491711.189 -9592511.680 10 0 60942 38700.00000 0 -13701366.570 -17537404.342 -12418533.016 10 0 60942 39600.00000 0 -12379961.974 -16467795.894 -15002680.387 10 0 60942 40500.00000 0 -10726217.161 -15343451.233 -17294655.554 10 0 60942 41400.00000 0 -8762006.601 -14223753.761 -19249878.452 10 0 60942 42300.00000 0 -6521478.024 -13164340.145 -20830357.018 10 0 60942 43200.00000 0 -4049874.559 -12214714.836 -22005425.026 10 0 60942 44100.00000 0 -1401893.699 -11416144.673 -22752333.818 10 0 60942 45000.00000 0 1360348.322 -10799922.116 -23056687.051 10 0 60942 45900.00000 0 4169661.757 -10386069.612 -22912710.785 10 0 60942 46800.00000 0 6956340.551 -10182538.654 -22323354.606 10 0 60942 47700.00000 0 9650825.236 -10184936.021 -21300222.720 10 0 60942 48600.00000 0 12186361.215 -10376787.341 -19863337.229 10 0 60942 49500.00000 0 14501542.624 -10730325.530 -18040738.893 10 0 60942 50400.00000 0 16542636.905 -11207769.667 -15867933.713 10 0 60942 51300.00000 0 18265594.639 -11763039.362 -13387196.510 10 0 60942 52200.00000 0 19637662.424 -12343831.592 -10646745.245 10 0 60942 53100.00000 0 20638533.143 -12893971.905 -7699802.320 10 0 60942 54000.00000 0 21260987.349 -13355940.553 -4603561.109 10 0 60942 54900.00000 0 21511000.646 -13673466.967 -1418077.750 10 0 60942 55800.00000 0 21407314.184 -13794083.220 1794890.343 10 0 60942 56700.00000 0 20980487.638 -13671528.997 4973076.900 10 0 60942 57600.00000 0 20271475.514 -13267906.928 8054907.305 10 0 60942 58500.00000 0 19329787.296 -12555497.580 10980684.237 10 0 60942 59400.00000 0 18211309.063 -11518157.754 13693735.995 10 0 60942 60300.00000 0 16975878.024 -10152242.989 16141505.919 10 0 60942 61200.00000 0 15684711.480 -8467014.992 18276562.486 10 0 60942 62100.00000 0 14397797.472 -6484515.940 20057511.359 10 0 60942 63000.00000 0 13171355.764 -4238913.602 21449792.528 10 0 60942 63900.00000 0 12055474.775 -1775342.938 22426347.775 10 0 60942 64800.00000 0 11092022.704 851709.437 22968146.067 10 0 60942 65700.00000 0 10312919.717 3580412.799 23064556.963 10 0 60942 66600.00000 0 9738843.270 6343910.496 22713564.642 10 0 60942 67500.00000 0 9378420.784 9072854.422 21921818.014 10 0 60942 68400.00000 0 9227943.791 11698052.291 20704515.059 10 0 60942 69300.00000 0 9271616.151 14153119.050 19085122.548 10 0 60942 70200.00000 0 9482326.689 16377023.159 17094935.261 10 0 60942 71100.00000 0 9822914.592 18316422.232 14772481.829 10 0 60942 72000.00000 0 10247875.061 19927690.709 12162787.449 10 0 60942 72900.00000 0 10705433.848 21178554.573 9316506.684 10 0 60942 73800.00000 0 11139903.300 22049264.224 6288942.423 10 0 60942 74700.00000 0 11494220.057 22533255.668 3138969.782 10 0 60942 75600.00000 0 11712556.387 22637271.757 -72113.957 10 0 60942 76500.00000 0 11742893.431 22380938.016 -3281790.441 10 0 60942 77400.00000 0 11539445.922 21795810.902 -6427547.932 10 0 60942 78300.00000 0 11064833.967 20923938.945 -9448110.479 10 0 60942 79200.00000 0 10291908.176 19815998.177 -12284643.257 10 0 60942 80100.00000 0 9205149.184 18529081.473 -14881909.249 10 0 60942 81000.00000 0 7801580.916 17124236.271 -17189353.571 10 0 60942 81900.00000 0 6091157.758 15663855.683 -19162093.519 10 0 60942 82800.00000 0 4096608.388 14209034.022 -20761794.479 10 0 60942 83700.00000 0 1852742.174 12816998.939 -21957414.610 10 0 60942 84600.00000 0 -594753.172 11538728.598 -22725804.073 10 0 60942 85500.00000 0 -3190972.507 10416854.064 -23052147.685 10 0 60943 0.00000 0 -5873843.165 9483934.573 -22930243.286 10 0 60943 900.00000 0 -8576479.896 8761176.674 -22362611.119 10 0 60943 1800.00000 0 -11229743.188 8257650.936 -21360433.336 10 0 60943 2700.00000 0 -13764899.561 7970035.817 -19943325.435 10 0 60943 3600.00000 0 -16116270.069 7882899.100 -18138944.853 10 0 60943 4500.00000 0 -18223758.899 7969502.814 -15982444.953 10 0 60943 5400.00000 0 -20035157.554 8193096.362 -13515785.369 10 0 60943 6300.00000 0 -21508129.807 8508642.114 -10786912.390 10 0 60943 7200.00000 0 -22611795.952 8864899.725 -7848825.448 10 0 60943 8100.00000 0 -23327851.708 9206780.608 -4758547.892 10 0 60943 9000.00000 0 -23651176.464 9477872.836 -1576021.975 10 0 60943 9900.00000 0 -23589906.842 9623029.739 1637050.543 10 0 60943 10800.00000 0 -23164973.785 9590913.000 4818399.856 10 0 60943 11700.00000 0 -22409123.622 9336383.077 7906388.798 10 0 60943 12600.00000 0 -21365464.944 8822636.276 10841199.795 10 0 60943 13500.00000 0 -20085602.623 8022998.489 13565985.601 10 0 60943 14400.00000 0 -18627437.320 6922299.936 16027962.144 10 0 60943 15300.00000 0 -17052722.413 5517772.701 18179423.019 10 0 60943 16200.00000 0 -15424480.123 3819432.610 19978656.815 10 0 60943 17100.00000 0 -13804384.199 1849928.274 21390750.290 10 0 60943 18000.00000 0 -12250217.756 -356137.944 22388262.555 10 0 60943 18900.00000 0 -10813511.600 -2753390.563 22951757.721 10 0 60943 19800.00000 0 -9537460.923 -5287316.129 23070185.979 10 0 60943 20700.00000 0 -8455206.792 -7896286.958 22741105.600 10 0 60943 21600.00000 0 -7588553.878 -10513891.461 21970741.155 10 0 60943 22500.00000 0 -6947177.951 -13071476.088 20773875.970 10 0 60943 23400.00000 0 -6528356.509 -15500794.751 19173579.841 10 0 60943 24300.00000 0 -6317234.209 -17736656.654 17200775.938 10 0 60943 25200.00000 0 -6287612.498 -19719462.934 14893653.931 10 0 60943 26100.00000 0 -6403230.739 -21397526.437 12296939.403 10 0 60943 27000.00000 0 -6619485.279 -22729077.505 9461032.644 10 0 60943 27900.00000 0 -6885514.082 -23683871.234 6441032.754 10 0 60943 28800.00000 0 -7146558.640 -24244328.022 3295665.729 10 0 60943 29700.00000 0 -7346502.623 -24406158.724 86137.484 10 0 60943 30600.00000 0 -7430478.778 -24178447.421 -3125065.287 10 0 60943 31500.00000 0 -7347432.238 -23583187.903 -6275402.083 10 0 60943 32400.00000 0 -7052529.988 -22654293.301 -9303508.268 10 0 60943 33300.00000 0 -6509312.647 -21436120.937 -12150402.147 10 0 60943 34200.00000 0 -5691495.690 -19981575.233 -14760644.553 10 0 60943 35100.00000 0 -4584342.286 -18349869.551 -17083427.212 10 0 60943 36000.00000 0 -3185548.359 -16604042.293 -19073567.837 10 0 60943 36900.00000 0 -1505601.418 -14808332.860 -20692392.007 10 0 60943 37800.00000 0 432402.759 -13025528.621 -21908484.612 10 0 60943 38700.00000 0 2593478.447 -11314394.894 -22698296.464 10 0 60943 39600.00000 0 4931973.476 -9727295.884 -23046594.853 10 0 60943 40500.00000 0 7393246.856 -8308105.974 -22946750.087 10 0 60943 41400.00000 0 9915730.550 -7090498.016 -22400853.337 10 0 60943 42300.00000 0 12433289.403 -6096679.065 -21419664.446 10 0 60943 43200.00000 0 14877781.035 -5336624.883 -20022391.554 10 0 60943 44100.00000 0 17181709.368 -4807843.393 -18236307.586 10 0 60943 45000.00000 0 19280861.700 -4495675.086 -16096211.613 10 0 60943 45900.00000 0 21116820.144 -4374115.824 -13643745.990 10 0 60943 46800.00000 0 22639243.615 -4407125.704 -10926582.795 10 0 60943 47700.00000 0 23807826.181 -4550367.449 -7997495.539 10 0 60943 48600.00000 0 24593851.165 -4753299.898 -4913334.231 10 0 60943 49500.00000 0 24981277.270 -4961537.555 -1733923.660 10 0 60943 50400.00000 0 24967312.496 -5119376.116 1479093.791 10 0 60943 51300.00000 0 24562452.921 -5172377.209 4663448.502 10 0 60943 52200.00000 0 23789985.691 -5069903.217 7757444.351 10 0 60943 53100.00000 0 22684977.704 -4767495.342 10701146.859 10 0 60943 54000.00000 0 21292792.806 -4228994.723 13437536.227 10 0 60943 54900.00000 0 19667199.615 -3428317.209 15913603.567 10 0 60943 55800.00000 0 17868148.962 -2350806.899 18081369.763 10 0 60943 56700.00000 0 15959313.320 -994110.983 19898808.062 10 0 60943 57600.00000 0 14005490.240 631461.740 21330653.317 10 0 60943 58500.00000 0 12069977.265 2503115.007 22349082.892 10 0 60943 59400.00000 0 10212026.802 4586266.318 22934256.583 10 0 60943 60300.00000 0 8484486.111 6835747.988 23074705.377 10 0 60943 61200.00000 0 6931719.943 9197460.071 22767561.426 10 0 60943 62100.00000 0 5587901.820 11610408.529 22018624.377 10 0 60943 63000.00000 0 4475744.831 14009045.831 20842261.964 10 0 60943 63900.00000 0 3605724.833 16325818.280 19261145.714 10 0 60943 64800.00000 0 2975828.607 18493815.362 17305825.593 10 0 60943 65700.00000 0 2571837.772 20449411.503 15014150.425 10 0 60943 66600.00000 0 2368136.823 22134790.312 12430544.054 10 0 60943 67500.00000 0 2329011.567 23500245.610 9605150.146 10 0 60943 68400.00000 0 2410383.297 24506162.334 6592861.475 10 0 60943 69300.00000 0 2561905.314 25124593.336 3452252.212 10 0 60943 70200.00000 0 2729332.589 25340364.837 244434.100 10 0 60943 71100.00000 0 2857063.360 25151663.059 -2968140.695 10 0 60943 72000.00000 0 2890743.707 24570076.520 -6122905.757 10 0 60943 72900.00000 0 2779823.201 23620091.721 -9158410.514 10 0 60943 73800.00000 0 2479951.577 22338063.345 -12015528.993 10 0 60943 74700.00000 0 1955113.175 20770702.620 -14638622.254 10 0 60943 75600.00000 0 1179407.126 18973148.080 -16976630.776 10 0 60943 76500.00000 0 138396.531 17006700.751 -18984074.577 10 0 60943 77400.00000 0 -1170031.527 14936319.849 -20621941.085 10 0 60943 78300.00000 0 -2735332.304 12827985.032 -21858443.326 10 0 60943 79200.00000 0 -4534510.716 10746036.388 -22669633.936 10 0 60943 80100.00000 0 -6532861.314 8750603.911 -23039863.570 10 0 60943 81000.00000 0 -8685210.058 6895233.855 -22962075.618 10 0 60943 81900.00000 0 -10937605.999 5224810.531 -22437932.367 10 0 60943 82800.00000 0 -13229392.139 3773859.333 -21477771.135 10 0 60943 83700.00000 0 -15495569.071 2565300.339 -20100392.062 10 0 60943 84600.00000 0 -17669352.922 1609702.718 -18332682.466 10 0 60943 85500.00000 0 -19684821.133 905069.067 -16209085.631 99